Zurück zum Katalog

JACKAL-02

AktivMilitärSSO
NORAD 59134·PAYLOAD·🇺🇸 United States

Gestartet Mar 4, 2024 von Vandenberg Space Force Base

Loading…

Nächste Überflüge (nächste 24 Stunden)

TLE

AktuellSource: Space-Track

Epoche: Sep 13, 2026, 22:22 UTC

1 59134U 24043AN  26256.93234865  .00015400  00000-0  28591-3 0  9994
2 59134  97.5697  46.8996 0005773 244.1518 115.9137 15.49016623141343

Verfolge JACKAL-02 in Echtzeit mit AllMySat

Download on the App Store